Terminal Aerodrome Forecast
Issued by NWS Goodland, KS

Home | Current Version | Previous Version | Text Only | Print | Product List | Glossary On
Versions: 1 2 3 4 5 6 7 8 9 10 11 12 13 14
499
FTUS43 KGLD 212355 AAA
TAFGLD
TAF AMD
KGLD 212355Z 2200/2224 34010G18KT P6SM VCSH FEW090 SCT250
     FM220600 02011KT P6SM SCT020 SCT150
     FM221400 06010KT P6SM FEW040 SCT140
     FM222100 15010KT P6SM SKC=

USA.gov is the U.S. government's official web portal to all federal, state and local government web resources and services.